[[{"header":{"parameterUnit":"m.s-1","parameterCategory":1,"la1":30.2991,"la2":30.254,"lo1":-89.0895,"lo2":-89.0444,"dy":0.0017,"dx":0.0017,"nx":28,"ny":28,"refTime":"2024-10-19T09:00:00:Z","depth":0,"parameterNumber":2,"parameterNumberName":"U-component_of_WINDS"},"data":[0,0,0,0,0,0,0,0,0,0,0,0,0,0,0,0,0,0,0,0,0,0,0,0,0,0,0,0,0,0,0,0,0,0,0,0,0,0,0,0,0,0,0,0,0,0,0,0,0,0,0,0,0,0,0,0,0,0,-2.8169,-2.8169,0,-2.8224,-2.8224,-2.8225,-2.8118,-2.8115,-2.8111,-2.8108,-2.8168,-2.8172,-2.8177,0,0,0,0,0,0,0,0,0,0,0,0,0,-2.7974,-2.7978,-2.8169,-2.8169,-2.817,-2.8224,-2.8224,-2.8225,-2.8119,-2.8114,-2.811,-2.8106,-2.8166,-2.8172,-2.8178,0,0,0,0,0,0,0,0,0,0,0,0,0,-2.8047,-2.7979,-2.8168,-2.8123,-2.812,-2.8223,-2.8224,-2.8225,-2.812,-2.8114,-2.8109,-2.8104,-2.8164,-2.8171,-2.8178,-2.833,0,0,-2.8201,-2.8204,0,0,0,0,0,0,0,0,-2.8043,-2.8054,-2.8129,-2.8127,-2.8123,-2.8158,-2.8177,-2.826,-2.8121,-2.812,-2.8108,-2.8101,-2.8169,-2.8176,-2.8198,-2.8333,-2.8335,-2.8201,-2.8206,-2.8209,-2.8211,0,0,0,0,0,0,0,-2.8038,-2.8051,-2.819,-2.813,-2.8127,-2.8101,-2.8105,-2.8193,-2.8174,-2.812,-2.8112,-2.812,-2.8166,-2.8191,-2.8198,-2.8336,-2.8201,-2.8208,-2.8212,-2.8215,-2.8598,-2.8603,0,0,0,0,0,0,-2.8038,-2.8047,-2.8189,-2.8192,-2.8069,-2.8109,-2.8114,-2.8153,-2.8172,-2.817,-2.8124,-2.8114,-2.8181,-2.819,-2.82,-2.8379,-2.8209,-2.8216,-2.822,-2.8592,-2.8599,-2.8605,0,0,0,0,0,0,-2.8034,-2.8051,-2.8186,-2.8118,-2.8133,-2.8118,-2.8162,-2.8156,-2.8181,-2.8176,-2.8172,-2.8153,-2.8177,-2.819,-2.8298,-2.838,-2.8219,-2.8226,-2.8585,-2.8594,-2.8602,-2.8739,0,0,0,0,0,0,-2.8029,-2.8051,-2.8108,-2.812,-2.8137,-2.8284,-2.8167,-2.8161,-2.8193,-2.8181,-2.8202,-2.82,-2.8174,-2.8288,-2.8305,-2.8387,-2.8232,-2.8578,-2.8589,-2.86,-2.8727,-2.8751,-2.8772,0,0,0,0,0,-2.8022,-2.8145,-2.8111,-2.8129,-2.8208,-2.8288,-2.8298,-2.8265,-2.82,-2.8258,-2.8254,-2.8199,-2.8367,-2.83,-2.8319,-2.8404,-2.8573,-2.8586,-2.8599,-2.8717,-2.8747,-2.8771,0,0,0,0,0,0,-2.8144,-2.8146,-2.8108,-2.8238,-2.8264,-2.827,-2.8342,-2.8297,-2.8343,-2.833,-2.8287,-2.8293,-2.841,-2.8417,-2.8342,-2.8551,-2.8459,-2.8477,-2.8543,-2.8571,-2.8593,-2.859,-2.8238,0,0,0,0,0,-2.8186,-2.8251,-2.8248,-2.8363,-2.8378,-2.8358,-2.8392,-2.8363,-2.8389,-2.84,-2.8404,-2.8432,-2.849,-2.8531,-2.8584,-2.8727,-2.873,-2.8795,-2.8817,-2.8835,-2.8852,-2.8928,-2.8957,-2.8648,-2.8648,-2.8648,0,0,-2.8274,-2.8282,-2.8326,-2.8388,-2.8404,-2.8473,-2.8368,-2.8445,-2.8496,-2.8412,-2.8514,-2.8519,-2.8546,-2.8673,-2.8728,-2.8683,-2.8937,-2.8852,-2.8866,-2.8873,-2.8945,-2.8974,-2.9,-2.8657,-2.8655,-2.8654,0,0,-2.8469,-2.8481,-2.8578,-2.8596,-2.8622,-2.8608,-2.8631,-2.8644,-2.8644,-2.8745,-2.8684,-2.8744,-2.8846,-2.8869,-2.8894,-2.9096,-2.9047,-2.9114,-2.9232,-2.9307,-2.9332,-2.9353,-2.9427,-2.9454,-2.913,-2.913,-2.9131,0,-2.8575,-2.8675,-2.8634,-2.8716,-2.8745,-2.867,-2.8769,-2.8789,-2.8832,-2.8854,-2.8801,-2.8928,-2.8941,-2.9072,-2.9121,-2.9143,-2.917,-2.9113,-2.9331,-2.9352,-2.9372,-2.9442,-2.9469,-2.9138,-2.9138,-2.9137,-2.9136,0,-2.8805,-2.8875,-2.8951,-2.8993,-2.903,-2.912,-2.9094,-2.9137,-2.9105,-2.9096,-2.9201,-2.9214,-2.927,-2.9298,-2.9268,-2.9425,-2.9396,-2.9338,-2.9245,-2.941,-2.9475,-2.9502,-2.915,-2.9147,-2.9145,-2.9143,0,0,-2.9081,-2.9098,-2.9127,-2.9145,-2.9167,-2.9221,-2.9307,-2.936,-2.9399,-2.943,-2.9503,-2.959,-2.9536,-2.9565,-2.9536,-2.9602,-2.9763,-2.9535,-2.9535,-2.9579,-2.9938,-2.9984,-3.0015,-2.9729,-2.9734,-2.9738,-2.9936,0,-2.9276,-2.9424,-2.9389,-2.9536,-2.9601,-2.9529,-2.9604,-2.9627,-2.9621,-2.9676,-2.9669,-2.9732,-2.9655,-2.9672,-2.9734,-2.973,-2.9835,-2.9715,-2.9798,-2.9802,-2.9796,-3.0049,-3.0097,-3.0284,-2.9961,-2.9966,-2.9969,0,-2.9524,-2.9564,-2.9717,-2.9728,-2.9754,-2.9822,-2.9868,-2.9921,-2.9944,-2.9935,-2.9967,-2.9925,-3.0011,-2.9915,-3.0034,-2.9953,-2.9985,-2.9988,-2.9994,-3.0003,-2.9897,-3.0067,-3.0343,-3.0372,-3.0008,-3.0005,-3.0002,0,-2.9713,-2.9804,-2.9908,-2.9925,-2.9941,-2.999,-2.9999,-3.0017,-3.0051,-3.0091,-3.0113,-3.0163,-3.0191,-3.0231,-3.0204,-3.0136,-3.0328,-3.0229,-3.0325,-3.0326,-3.0371,-3.0369,-3.0658,-3.0387,-3.0387,-3.0386,-3.0385,0,-2.9935,-3.0033,-2.9993,-3.0057,-3.0163,-3.0122,-3.0229,-3.0229,-3.0246,-3.0309,-3.025,-3.0311,-3.0271,-3.0329,-3.0308,-3.041,-3.0423,-3.0419,-3.0413,-3.0426,-3.0427,-3.0448,-3.0436,-3.0393,-3.0392,-3.039,-3.0389,0,-3.0166,-3.0143,-3.0251,-3.0256,-3.0259,-3.0338,-3.0342,-3.0402,-3.039,-3.0472,-3.0488,-3.0471,-3.0536,-3.0512,-3.0582,-3.0568,-3.0699,-3.0675,-3.0692,-3.0687,-3.0784,-3.0776,-3.1099,-3.114,-3.084,-3.0843,-3.0846,0,-3.0311,-3.0384,-3.0396,-3.0433,-3.0446,-3.0508,-3.0542,-3.0503,-3.0541,-3.0573,-3.0629,-3.0689,-3.0735,-3.0842,-3.0836,-3.0889,-3.0867,-3.0977,-3.0875,-3.0886,-3.0872,-3.0869,-3.0877,-3.0998,-3.1002,-3.1005,-3.1007,0,-3.0571,-3.0556,-3.0607,-3.0654,-3.0696,-3.0731,-3.0761,-3.0796,-3.0759,-3.0805,-3.087,-3.0905,-3.0975,-3.1036,-3.1083,-3.1093,-3.1045,-3.1038,-3.1064,-3.1079,-3.1087,-3.1086,-3.075,-3.1032,-3.1029,-3.1028,-3.1026,-3.1025,-3.0765,-3.0826,-3.0845,-3.0903,-3.0921,-3.0951,-3.1007,-3.1002,-3.1055,-3.1109,-3.1082,-3.1159,-3.118,-3.1238,-3.1255,-3.1314,-3.1272,-3.1308,-3.1317,-3.1328,-3.1341,-3.1075,-3.1322,-3.1321,-3.1321,-3.132,-3.132,0,-3.1024,-3.1032,-3.1086,-3.1129,-3.1176,-3.1124,-3.1154,-3.1197,-3.1264,-3.1287,-3.1333,-3.1408,-3.1466,-3.1464,-3.1518,-3.1566,-3.1546,-3.1582,-3.1579,-3.1583,-3.1375,-3.1349,-3.1598,-3.1598,-3.1597,-3.1597,-3.1597,-3.1597,-3.1165,-3.1267,-3.1253,-3.1364,-3.137,-3.1443,-3.1466,-3.1493,-3.1511,-3.1597,-3.1645,-3.1642,-3.1656,-3.171,-3.1761,-3.1759,-3.1782,-3.1828,-3.1818,-3.1625,-3.1597,-3.1571,-3.1546,-3.1832,-3.1833,-3.2021,-3.2022,-3.2024]},{"header":{"parameterUnit":"m.s-1","parameterCategory":1,"la1":30.2991,"la2":30.254,"lo1":-89.0895,"lo2":-89.0444,"dy":0.0017,"dx":0.0017,"nx":28,"ny":28,"refTime":"2024-10-19T09:00:00:Z","depth":0,"parameterNumber":3,"parameterNumberName":"V-component_of_WINDS"},"data":[0,0,0,0,0,0,0,0,0,0,0,0,0,0,0,0,0,0,0,0,0,0,0,0,0,0,0,0,0,0,0,0,0,0,0,0,0,0,0,0,0,0,0,0,0,0,0,0,0,0,0,0,0,0,0,0,0,0,-3.2554,-3.2554,0,-3.2563,-3.2564,-3.2564,-3.2512,-3.251,-3.2509,-3.2507,-3.2516,-3.2517,-3.2519,0,0,0,0,0,0,0,0,0,0,0,0,0,-3.249,-3.2492,-3.2554,-3.2554,-3.2555,-3.2563,-3.2564,-3.2564,-3.2512,-3.251,-3.2508,-3.2507,-3.2515,-3.2517,-3.2519,0,0,0,0,0,0,0,0,0,0,0,0,0,-3.2511,-3.2492,-3.2554,-3.253,-3.2528,-3.2563,-3.2564,-3.2564,-3.2512,-3.251,-3.2508,-3.2506,-3.2515,-3.2517,-3.2519,-3.2579,0,0,-3.2527,-3.2528,0,0,0,0,0,0,0,0,-3.251,-3.2513,-3.2533,-3.2532,-3.2529,-3.2534,-3.2544,-3.2569,-3.2513,-3.2518,-3.2507,-3.2505,-3.2524,-3.2525,-3.2532,-3.2579,-3.258,-3.2527,-3.2528,-3.2529,-3.253,0,0,0,0,0,0,0,-3.2508,-3.2512,-3.2558,-3.2534,-3.2531,-3.2518,-3.2518,-3.2548,-3.2533,-3.2517,-3.2514,-3.2515,-3.2522,-3.253,-3.2532,-3.258,-3.2527,-3.2529,-3.2531,-3.2531,-3.2675,-3.2677,0,0,0,0,0,0,-3.251,-3.2512,-3.2558,-3.2558,-3.2514,-3.2521,-3.2521,-3.2535,-3.2533,-3.253,-3.2517,-3.2513,-3.2526,-3.2529,-3.2532,-3.26,-3.2529,-3.2532,-3.2533,-3.2672,-3.2675,-3.2678,0,0,0,0,0,0,-3.2509,-3.2515,-3.2557,-3.2534,-3.2538,-3.2524,-3.254,-3.2536,-3.2543,-3.2533,-3.253,-3.2528,-3.2525,-3.2528,-3.2567,-3.2599,-3.2533,-3.2535,-3.2669,-3.2673,-3.2676,-3.2737,0,0,0,0,0,0,-3.2507,-3.2515,-3.2538,-3.2535,-3.254,-3.2593,-3.2542,-3.2538,-3.2548,-3.2542,-3.2542,-3.254,-3.2523,-3.2564,-3.257,-3.2601,-3.2537,-3.2666,-3.2671,-3.2675,-3.2732,-3.2743,-3.2751,0,0,0,0,0,-3.2505,-3.2555,-3.2539,-3.2545,-3.2568,-3.2595,-3.2598,-3.2579,-3.2551,-3.2573,-3.2566,-3.254,-3.2595,-3.2568,-3.2574,-3.2607,-3.2664,-3.267,-3.2675,-3.2728,-3.2741,-3.2751,0,0,0,0,0,0,-3.2562,-3.2554,-3.2537,-3.2587,-3.2592,-3.2586,-3.2614,-3.2593,-3.2606,-3.26,-3.2575,-3.2575,-3.2618,-3.2617,-3.2587,-3.2664,-3.2625,-3.2632,-3.2663,-3.2675,-3.2684,-3.2683,-3.2539,0,0,0,0,0,-3.2581,-3.2604,-3.2595,-3.264,-3.2644,-3.2629,-3.264,-3.2624,-3.2629,-3.2631,-3.2626,-3.2631,-3.265,-3.2662,-3.2679,-3.2732,-3.2731,-3.2758,-3.2767,-3.2775,-3.2781,-3.2807,-3.2819,-3.2695,-3.2695,-3.2695,0,0,-3.2619,-3.2617,-3.2633,-3.2651,-3.2654,-3.2677,-3.2631,-3.2658,-3.2675,-3.2635,-3.2671,-3.2668,-3.2672,-3.2718,-3.2738,-3.2718,-3.2815,-3.2782,-3.2788,-3.279,-3.2814,-3.2826,-3.2836,-3.2699,-3.2698,-3.2697,0,0,-3.27,-3.2702,-3.2739,-3.2742,-3.2745,-3.2735,-3.2744,-3.2741,-3.2738,-3.2774,-3.2743,-3.2763,-3.2796,-3.2799,-3.2805,-3.2887,-3.2862,-3.2893,-3.2942,-3.2968,-3.2977,-3.2986,-3.3014,-3.3024,-3.2899,-3.2899,-3.2899,0,-3.2747,-3.2782,-3.276,-3.2789,-3.2797,-3.2762,-3.2798,-3.2802,-3.2811,-3.2817,-3.2795,-3.2834,-3.2835,-3.288,-3.29,-3.2906,-3.2915,-3.2892,-3.2978,-3.2986,-3.2994,-3.302,-3.303,-3.2902,-3.2902,-3.2902,-3.2901,0,-3.2838,-3.2863,-3.2892,-3.2901,-3.2913,-3.2945,-3.2928,-3.2942,-3.2926,-3.2917,-3.2954,-3.2953,-3.2967,-3.2977,-3.2962,-3.302,-3.3008,-3.2982,-3.2942,-3.301,-3.3033,-3.3043,-3.2908,-3.2906,-3.2905,-3.2904,0,0,-3.2956,-3.2952,-3.2963,-3.2966,-3.2967,-3.2985,-3.3016,-3.303,-3.3042,-3.305,-3.3074,-3.3102,-3.3078,-3.3085,-3.3069,-3.3092,-3.3155,-3.3063,-3.3063,-3.3079,-3.3218,-3.3236,-3.3248,-3.3139,-3.3141,-3.3142,-3.3217,0,-3.3034,-3.3086,-3.3067,-3.312,-3.3141,-3.3107,-3.3133,-3.3136,-3.3129,-3.3146,-3.3138,-3.3158,-3.3125,-3.3129,-3.315,-3.3143,-3.3182,-3.3137,-3.316,-3.3161,-3.3159,-3.3261,-3.3281,-3.3351,-3.3226,-3.3228,-3.3229,0,-3.3132,-3.3143,-3.3198,-3.3194,-3.3202,-3.3226,-3.3237,-3.3254,-3.3256,-3.3249,-3.3257,-3.3236,-3.3264,-3.3225,-3.3264,-3.3234,-3.3242,-3.324,-3.3242,-3.3242,-3.3199,-3.3263,-3.3373,-3.3383,-3.3244,-3.3243,-3.3242,0,-3.321,-3.3239,-3.3275,-3.3278,-3.3275,-3.3293,-3.3292,-3.3292,-3.3302,-3.3311,-3.3317,-3.333,-3.3337,-3.3347,-3.333,-3.3303,-3.337,-3.333,-3.3365,-3.3365,-3.3379,-3.3379,-3.3492,-3.3387,-3.3387,-3.3387,-3.3387,0,-3.3299,-3.3334,-3.3309,-3.3332,-3.3369,-3.3346,-3.3384,-3.3379,-3.338,-3.34,-3.3372,-3.3391,-3.3367,-3.3384,-3.3371,-3.3404,-3.3408,-3.3402,-3.3398,-3.3404,-3.3405,-3.3409,-3.3403,-3.339,-3.3389,-3.3388,-3.3388,0,-3.3393,-3.3378,-3.3415,-3.3408,-3.3407,-3.3435,-3.3429,-3.3449,-3.3439,-3.3465,-3.347,-3.3455,-3.3473,-3.3457,-3.3475,-3.3466,-3.351,-3.3499,-3.3509,-3.3505,-3.354,-3.3537,-3.3659,-3.3673,-3.3561,-3.3562,-3.3563,0,-3.345,-3.3475,-3.3471,-3.3482,-3.3483,-3.3502,-3.3511,-3.349,-3.35,-3.3505,-3.3524,-3.354,-3.3551,-3.3582,-3.3572,-3.3586,-3.3574,-3.3616,-3.3576,-3.3581,-3.3573,-3.3571,-3.3573,-3.3624,-3.3625,-3.3626,-3.3627,0,-3.3552,-3.3543,-3.3557,-3.3569,-3.358,-3.3588,-3.3594,-3.3605,-3.3583,-3.3596,-3.3615,-3.3624,-3.3641,-3.3657,-3.3667,-3.3666,-3.3643,-3.364,-3.3648,-3.3654,-3.3658,-3.3655,-3.353,-3.3637,-3.3636,-3.3635,-3.3635,-3.3635,-3.3627,-3.3648,-3.3648,-3.3664,-3.3666,-3.3672,-3.369,-3.3682,-3.3697,-3.371,-3.3696,-3.3718,-3.3719,-3.373,-3.3731,-3.3748,-3.373,-3.3743,-3.3746,-3.3749,-3.3753,-3.3657,-3.375,-3.3749,-3.3749,-3.3749,-3.3749,0,-3.3727,-3.3725,-3.374,-3.3749,-3.3761,-3.3739,-3.3744,-3.3756,-3.3775,-3.3778,-3.3789,-3.381,-3.3825,-3.3816,-3.3829,-3.3844,-3.3833,-3.3847,-3.3846,-3.3845,-3.3769,-3.376,-3.3856,-3.3856,-3.3856,-3.3855,-3.3855,-3.3855,-3.378,-3.3813,-3.3804,-3.3837,-3.3834,-3.3855,-3.386,-3.3865,-3.3866,-3.389,-3.3902,-3.3897,-3.3895,-3.3907,-3.3919,-3.3916,-3.3922,-3.394,-3.3933,-3.3861,-3.3851,-3.3841,-3.3832,-3.3941,-3.3941,-3.4008,-3.4008,-3.4009]}]]